Orbital Elements at Epoch 2459200.5 (2020-Dec-17.0) TDB
Reference: JPL 22 (heliocentric ecliptic J2000)
Element | Value | Uncertainty (1-sigma) | Units |
e | .1458382739938987 | 4.236e-08 | |
a | 2.197747680332875 | 7.0637e-09 | au |
q | 1.877231951959034 | 9.3745e-08 | au |
i | 4.180915316423116 | 5.0275e-06 | deg |
node | 351.1879720432327 | 5.1642e-05 | deg |
peri | 63.42177401776681 | 5.3856e-05 | deg |
M | 204.356353081915 | 1.5586e-05 | deg |
tp | 2459715.010295929208 (2022-May-15.51029593) | 5.264e-05 | TDB |
period | 1190.049900539775 3.26 | 5.7373e-06 1.571e-08 | d yr |
n | .3025083232532633 | 1.4584e-09 | deg/d |
Q | 2.518263408706715 | 8.0938e-09 | au |
|
| | Orbit Determination Parameters
Additional Information
|